TimeAKST,TemperatureF,Dew PointF,Humidity,Sea Level PressureIn,VisibilityMPH,Wind Direction,Wind SpeedMPH,Gust SpeedMPH,PrecipitationIn,Events,Conditions,WindDirDegrees,DateUTC
12:16 AM,39.2,24.8,56,29.79,10.0,East,4.6,-,N/A,,Overcast,80,2013-02-26 09:16:00
12:36 AM,39.2,23.0,52,29.78,10.0,East,3.5,-,N/A,,Overcast,90,2013-02-26 09:36:00
12:56 AM,41.0,23.0,49,29.77,10.0,ENE,6.9,-,N/A,,Overcast,60,2013-02-26 09:56:00
1:16 AM,39.2,23.0,52,29.77,10.0,Calm,Calm,-,N/A,,Overcast,0,2013-02-26 10:16:00
1:36 AM,39.2,23.0,52,29.75,10.0,Calm,Calm,-,N/A,,Mostly Cloudy,0,2013-02-26 10:36:00
1:56 AM,39.2,23.0,52,29.74,10.0,East,5.8,-,N/A,,Mostly Cloudy,90,2013-02-26 10:56:00
2:16 AM,39.2,23.0,52,29.73,10.0,East,3.5,-,N/A,,Mostly Cloudy,80,2013-02-26 11:16:00
2:36 AM,39.2,23.0,52,29.73,10.0,SE,8.1,-,N/A,,Mostly Cloudy,130,2013-02-26 11:36:00
3:16 AM,39.2,23.0,52,29.71,10.0,East,8.1,-,N/A,,Overcast,100,2013-02-26 12:16:00
3:36 AM,41.0,23.0,49,29.70,10.0,East,5.8,-,N/A,,Overcast,100,2013-02-26 12:36:00
3:56 AM,41.0,23.0,49,29.69,10.0,ENE,6.9,-,N/A,,Overcast,70,2013-02-26 12:56:00
4:16 AM,41.0,23.0,49,29.68,10.0,East,8.1,-,N/A,,Overcast,90,2013-02-26 13:16:00
4:36 AM,41.0,23.0,49,29.67,10.0,NE,6.9,-,N/A,,Overcast,50,2013-02-26 13:36:00
4:56 AM,41.0,24.8,53,29.67,10.0,East,4.6,-,N/A,,Overcast,90,2013-02-26 13:56:00
5:16 AM,41.0,23.0,49,29.66,10.0,East,5.8,-,N/A,,Overcast,90,2013-02-26 14:16:00
5:36 AM,41.0,23.0,49,29.66,10.0,ESE,5.8,-,N/A,,Overcast,120,2013-02-26 14:36:00
5:56 AM,41.0,23.0,49,29.65,10.0,ENE,4.6,-,N/A,,Overcast,70,2013-02-26 14:56:00
6:16 AM,41.0,23.0,49,29.64,10.0,NE,6.9,-,N/A,,Overcast,50,2013-02-26 15:16:00
6:36 AM,42.8,23.0,46,29.64,10.0,ESE,8.1,-,N/A,,Overcast,110,2013-02-26 15:36:00
6:56 AM,41.0,23.0,49,29.63,10.0,East,6.9,-,N/A,,Overcast,90,2013-02-26 15:56:00
7:16 AM,41.0,24.8,53,29.63,10.0,East,5.8,-,N/A,,Overcast,90,2013-02-26 16:16:00
7:36 AM,41.0,24.8,53,29.62,10.0,Calm,Calm,-,N/A,,Overcast,0,2013-02-26 16:36:00
7:56 AM,41.0,24.8,53,29.62,10.0,ENE,3.5,-,N/A,,Overcast,60,2013-02-26 16:56:00
8:16 AM,41.0,24.8,53,29.62,10.0,ENE,4.6,-,N/A,,Overcast,70,2013-02-26 17:16:00
8:36 AM,41.0,24.8,53,29.61,10.0,NE,3.5,-,N/A,,Overcast,40,2013-02-26 17:36:00
8:56 AM,37.4,26.6,65,29.61,10.0,West,3.5,-,N/A,,Overcast,280,2013-02-26 17:56:00
9:16 AM,37.4,26.6,65,29.60,10.0,NNW,6.9,-,N/A,,Overcast,330,2013-02-26 18:16:00
9:36 AM,37.4,28.4,70,29.60,10.0,Calm,Calm,-,N/A,,Overcast,0,2013-02-26 18:36:00
9:56 AM,37.4,28.4,70,29.60,10.0,WSW,5.8,-,N/A,,Overcast,250,2013-02-26 18:56:00
10:16 AM,37.4,28.4,70,29.60,10.0,WNW,6.9,-,N/A,,Overcast,300,2013-02-26 19:16:00
10:36 AM,37.4,28.4,70,29.60,10.0,West,4.6,-,N/A,,Overcast,280,2013-02-26 19:36:00
10:56 AM,37.4,30.2,75,29.60,10.0,NW,6.9,-,N/A,,Overcast,320,2013-02-26 19:56:00
11:16 AM,37.4,30.2,75,29.60,10.0,NW,4.6,-,N/A,,Overcast,310,2013-02-26 20:16:00
11:36 AM,37.4,30.2,75,29.60,10.0,WNW,6.9,-,N/A,,Overcast,300,2013-02-26 20:36:00
11:56 AM,37.4,30.2,75,29.60,10.0,WNW,8.1,-,N/A,,Overcast,300,2013-02-26 20:56:00
12:16 PM,37.4,30.2,75,29.60,10.0,NNW,8.1,-,N/A,,Overcast,330,2013-02-26 21:16:00
12:36 PM,37.4,30.2,75,29.60,10.0,NW,6.9,-,N/A,,Overcast,320,2013-02-26 21:36:00
12:56 PM,37.4,30.2,75,29.60,10.0,NW,8.1,-,N/A,,Overcast,320,2013-02-26 21:56:00
1:16 PM,39.2,30.2,70,29.60,10.0,WNW,4.6,-,N/A,,Overcast,290,2013-02-26 22:16:00
1:36 PM,39.2,30.2,70,29.60,10.0,NNW,5.8,-,N/A,,Overcast,330,2013-02-26 22:36:00
1:56 PM,39.2,30.2,70,29.60,10.0,Calm,Calm,-,N/A,,Overcast,0,2013-02-26 22:56:00
2:16 PM,39.2,30.2,70,29.60,10.0,NW,5.8,-,N/A,,Overcast,310,2013-02-26 23:16:00
2:36 PM,39.2,32.0,75,29.60,10.0,WNW,4.6,-,N/A,,Overcast,290,2013-02-26 23:36:00
2:56 PM,39.2,30.2,70,29.60,10.0,NW,5.8,-,N/A,,Overcast,320,2013-02-26 23:56:00
3:16 PM,39.2,32.0,75,29.59,10.0,NW,5.8,-,N/A,,Overcast,320,2013-02-27 00:16:00
3:36 PM,39.2,30.2,70,29.59,10.0,WNW,6.9,-,N/A,,Overcast,290,2013-02-27 00:36:00
3:56 PM,39.2,30.2,70,29.59,10.0,West,4.6,-,N/A,,Overcast,280,2013-02-27 00:56:00
4:16 PM,39.2,30.2,70,29.59,10.0,Calm,Calm,-,N/A,,Overcast,0,2013-02-27 01:16:00
4:36 PM,39.2,30.2,70,29.60,10.0,NNW,3.5,-,N/A,,Overcast,330,2013-02-27 01:36:00
4:56 PM,37.4,30.2,75,29.59,10.0,NW,4.6,-,N/A,,Overcast,320,2013-02-27 01:56:00
5:16 PM,37.4,30.2,75,29.59,10.0,WNW,4.6,-,N/A,,Overcast,290,2013-02-27 02:16:00
5:36 PM,39.2,30.2,70,29.59,10.0,NW,3.5,-,N/A,,Overcast,320,2013-02-27 02:36:00
5:56 PM,37.4,30.2,75,29.59,10.0,NNW,5.8,-,N/A,,Overcast,330,2013-02-27 02:56:00
6:16 PM,-9999,-9999,N/A,29.59,10.0,Calm,Calm,-,N/A,,Overcast,0,2013-02-27 03:16:00
6:36 PM,-9999,-9999,N/A,29.58,10.0,East,6.9,-,N/A,,Overcast,100,2013-02-27 03:36:00
6:56 PM,-9999,-9999,N/A,29.58,10.0,ESE,9.2,-,N/A,,Overcast,110,2013-02-27 03:56:00
7:16 PM,-9999,-9999,N/A,29.58,10.0,ESE,11.5,17.3,N/A,,Overcast,120,2013-02-27 04:16:00
7:36 PM,-9999,-9999,N/A,29.57,10.0,ESE,13.8,21.9,N/A,,Mostly Cloudy,110,2013-02-27 04:36:00
7:56 PM,-9999,-9999,N/A,29.57,10.0,SE,11.5,-,N/A,,Mostly Cloudy,130,2013-02-27 04:56:00
8:16 PM,-9999,-9999,N/A,29.57,10.0,ESE,11.5,-,N/A,,Mostly Cloudy,120,2013-02-27 05:16:00
8:36 PM,-9999,-9999,N/A,29.57,10.0,ESE,12.7,19.6,N/A,,Partly Cloudy,110,2013-02-27 05:36:00
8:56 PM,-9999,-9999,N/A,29.56,10.0,East,9.2,16.1,N/A,,Scattered Clouds,100,2013-02-27 05:56:00
9:16 PM,-9999,-9999,N/A,29.55,10.0,ESE,12.7,17.3,N/A,,Mostly Cloudy,110,2013-02-27 06:16:00
9:36 PM,-9999,-9999,N/A,29.55,10.0,ESE,12.7,25.3,N/A,,Overcast,120,2013-02-27 06:36:00
9:56 PM,-9999,-9999,N/A,29.55,10.0,East,10.4,18.4,N/A,,Mostly Cloudy,100,2013-02-27 06:56:00
10:16 PM,-9999,-9999,N/A,29.55,10.0,ESE,16.1,24.2,N/A,,Mostly Cloudy,110,2013-02-27 07:16:00
10:36 PM,-9999,-9999,N/A,29.56,10.0,ESE,18.4,25.3,N/A,,Mostly Cloudy,120,2013-02-27 07:36:00
10:56 PM,-9999,-9999,N/A,29.56,10.0,ESE,18.4,26.5,N/A,,Mostly Cloudy,110,2013-02-27 07:56:00
11:16 PM,-9999,-9999,N/A,29.57,10.0,ESE,21.9,31.1,N/A,,Overcast,120,2013-02-27 08:16:00
11:36 PM,-9999,-9999,N/A,29.56,10.0,SE,19.6,32.2,N/A,,Overcast,130,2013-02-27 08:36:00
11:56 PM,42.8,26.6,53,29.57,10.0,ESE,19.6,31.1,N/A,,Overcast,120,2013-02-27 08:56:00